sat.trackr.live / text

‹ back to catalog

STARLINK-3933

NORAD 52538 · 2022-051F

PAYLOAD ACTIVE UNKNOWN

§ Identity

Operator
Country
US
Launch date
2022-05-13
Launch site
AFWTR
Launch vehicle
Mass (kg)
RCS (m²)

Purposes: comms

External: N2YO · Heavens-Above · Gunter

§ Orbital elements

Epoch: 2026-09-19T22:58:40.916064Z

Period
93.85 min
Inclination
53.1607°
Eccentricity
0.0001199
Mean motion
15.34388020 rev/d
Perigee alt
461.9 km
Apogee alt
463.6 km
Semi-major
6,840.9 km
B*
4.1959e-6
RAAN
320.0121°
Arg perigee
86.1749°
Mean anomaly
273.9390°
Rev number
24,100

§ Raw data

STARLINK-39331 52538U 22051F   26262.95741801 -.00000234  00000+0  41959-5 0  99982 52538  53.1607 320.0121 0001199  86.1749 273.9390 15.34388020241005

JSON: /api/v1/satellites/52538 · /tle

For live sub-satellite position, see the globe view (requires WebGL).

§ Visibility from observer

Set your observer location to see the next 7 days of passes ≥ 10°. The values pass through the URL so the page stays shareable.

No JS? Fill the form by hand. The geolocation button needs JavaScript.